When you browse on this site, cookies collect data to enhance your experience and personalize the content and advertising you see.
Visit our Privacy Policy to learn more. By continuing to use the site, you agree to this use of cookies and data.
  • In Romania
  • List of Countries
  • For 7 days
  • Water Temperature
  • Weather Map
  • Weather Widgets
  • user-avatar
    Login

    Hourly Weather Serowe

    Today, 13 November, Wednesday

    Time Temperature Precipitation Wind Pressure Humidity
    00:00 +22°C° 0.7 mm 4 mps 665 mmHg 79%
    01:00 +22°C° 0.7 mm 4 mps 664 mmHg 82%
    02:00 +21°C° 0.7 mm 4 mps 664 mmHg 85%
    03:00 +21°C° 0.3 mm 4 mps 664 mmHg 86%
    04:00 +21°C° 0.3 mm 4 mps 664 mmHg 87%
    05:00 +21°C° 0.3 mm 4 mps 664 mmHg 88%
    06:00 +21°C° 0 mm 4 mps 665 mmHg 85%
    07:00 +22°C° 0 mm 4 mps 665 mmHg 82%
    08:00 +23°C° 0 mm 4 mps 666 mmHg 78%
    09:00 +25°C° 0.8 mm 4 mps 666 mmHg 72%
    10:00 +27°C° 0.8 mm 3 mps 666 mmHg 66%
    11:00 +28°C° 0.8 mm 3 mps 666 mmHg 60%
    12:00 +29°C° 0.6 mm 3 mps 666 mmHg 55%
    13:00 +30°C° 0.6 mm 2 mps 666 mmHg 50%
    14:00 +30°C° 0 mm 1 mps 666 mmHg 46%
    15:00 +30°C° 0 mm 1 mps 665 mmHg 45%
    16:00 +31°C° 0 mm 1 mps 665 mmHg 43%
    17:00 +31°C° 0 mm 1 mps 664 mmHg 41%
    18:00 +29°C° 0.1 mm 2 mps 665 mmHg 49%
    19:00 +28°C° 0.1 mm 2 mps 665 mmHg 56%
    20:00 +26°C° 0.1 mm 3 mps 665 mmHg 64%
    21:00 +25°C° 0.3 mm 3 mps 665 mmHg 67%
    22:00 +25°C° 0.3 mm 3 mps 665 mmHg 71%
    23:00 +24°C° 0.3 mm 3 mps 665 mmHg 74%

    Tomorrow, 14 November, Thursday

    Time Temperature Precipitation Wind Pressure Humidity
    00:00 +24°C° 0 mm 2 mps 665 mmHg 76%
    01:00 +23°C° 0 mm 2 mps 665 mmHg 78%
    02:00 +23°C° 0 mm 1 mps 664 mmHg 80%
    03:00 +23°C° 0 mm 1 mps 664 mmHg 82%
    04:00 +22°C° 0 mm 1 mps 664 mmHg 84%
    05:00 +22°C° 0 mm 1 mps 664 mmHg 85%
    06:00 +23°C° 0 mm 1 mps 665 mmHg 78%
    07:00 +25°C° 0 mm 2 mps 665 mmHg 71%
    08:00 +26°C° 0 mm 2 mps 666 mmHg 63%
    09:00 +28°C° 0 mm 2 mps 666 mmHg 56%
    10:00 +30°C° 0 mm 3 mps 666 mmHg 48%
    11:00 +31°C° 0 mm 3 mps 666 mmHg 41%
    12:00 +33°C° 0 mm 3 mps 666 mmHg 38%
    13:00 +34°C° 0 mm 3 mps 665 mmHg 35%
    14:00 +34°C° 0 mm 3 mps 664 mmHg 32%
    15:00 +34°C° 0 mm 3 mps 664 mmHg 32%
    16:00 +34°C° 0 mm 3 mps 664 mmHg 32%
    17:00 +34°C° 0 mm 3 mps 663 mmHg 32%
    18:00 +33°C° 0 mm 3 mps 663 mmHg 35%
    19:00 +30°C° 0 mm 3 mps 663 mmHg 38%
    20:00 +29°C° 0 mm 3 mps 663 mmHg 41%
    21:00 +29°C° 0 mm 2 mps 663 mmHg 43%
    22:00 +28°C° 0 mm 2 mps 663 mmHg 44%
    23:00 +27°C° 0 mm 2 mps 663 mmHg 46%

    Day after tomorrow, 15 November, Friday

    Time Temperature Precipitation Wind Pressure Humidity
    00:00 +27°C° 0 mm 2 mps 663 mmHg 41%
    01:00 +26°C° 0 mm 1 mps 663 mmHg 36%
    02:00 +23°C° 0 mm 0 mps 662 mmHg 32%
    03:00 +25°C° 0 mm 1 mps 662 mmHg 30%
    04:00 +24°C° 0 mm 1 mps 662 mmHg 29%
    05:00 +24°C° 0 mm 1 mps 662 mmHg 28%
    06:00 +26°C° 0 mm 1 mps 663 mmHg 25%
    07:00 +27°C° 0 mm 1 mps 664 mmHg 23%
    08:00 +27°C° 0 mm 0 mps 665 mmHg 20%
    09:00 +31°C° 0 mm 1 mps 665 mmHg 17%
    10:00 +34°C° 0 mm 2 mps 665 mmHg 13%
    11:00 +36°C° 0 mm 3 mps 665 mmHg 9%
    12:00 +37°C° 0 mm 4 mps 664 mmHg 9%
    13:00 +38°C° 0 mm 6 mps 663 mmHg 8%
    14:00 +39°C° 0 mm 7 mps 663 mmHg 8%
    15:00 +38°C° 0 mm 6 mps 662 mmHg 8%
    16:00 +38°C° 0 mm 6 mps 662 mmHg 9%
    17:00 +36°C° 0 mm 6 mps 662 mmHg 9%
    18:00 +34°C° 0 mm 4 mps 662 mmHg 11%
    19:00 +31°C° 0 mm 3 mps 662 mmHg 14%
    20:00 +28°C° 0 mm 2 mps 662 mmHg 16%
    21:00 +28°C° 0 mm 2 mps 662 mmHg 18%
    22:00 +27°C° 0 mm 2 mps 662 mmHg 19%
    23:00 +26°C° 0 mm 1 mps 663 mmHg 21%

    16 November, Saturday

    Time Temperature Precipitation Wind Pressure Humidity
    00:00 +25°C° 0 mm 2 mps 662 mmHg 42%
    01:00 +22°C° 0 mm 3 mps 662 mmHg 62%
    02:00 +21°C° 0 mm 5 mps 661 mmHg 83%
    03:00 +21°C° 0 mm 5 mps 661 mmHg 83%
    04:00 +21°C° 0 mm 5 mps 661 mmHg 83%
    05:00 +21°C° 0 mm 5 mps 662 mmHg 82%
    06:00 +22°C° 0 mm 5 mps 662 mmHg 79%
    07:00 +22°C° 0 mm 5 mps 663 mmHg 76%
    08:00 +22°C° 0 mm 5 mps 663 mmHg 73%
    09:00 +26°C° 0 mm 5 mps 664 mmHg 62%
    10:00 +28°C° 0 mm 4 mps 664 mmHg 50%
    11:00 +30°C° 0 mm 4 mps 664 mmHg 39%
    12:00 +33°C° 0 mm 3 mps 664 mmHg 32%
    13:00 +35°C° 0 mm 2 mps 663 mmHg 25%
    14:00 +35°C° 0 mm 1 mps 663 mmHg 18%
    15:00 +36°C° 0 mm 2 mps 663 mmHg 18%
    16:00 +36°C° 0 mm 2 mps 662 mmHg 17%
    17:00 +35°C° 0 mm 3 mps 662 mmHg 17%
    18:00 +34°C° 0 mm 2 mps 662 mmHg 20%
    19:00 +31°C° 0 mm 2 mps 662 mmHg 23%
    20:00 +29°C° 0 mm 2 mps 662 mmHg 26%
    21:00 +28°C° 0 mm 3 mps 662 mmHg 33%
    22:00 +27°C° 0 mm 4 mps 662 mmHg 39%
    23:00 +26°C° 0 mm 5 mps 662 mmHg 45%

    17 November, Sunday

    Time Temperature Precipitation Wind Pressure Humidity
    00:00 +26°C° 0 mm 4 mps 661 mmHg 47%
    01:00 +25°C° 0 mm 4 mps 661 mmHg 48%
    02:00 +25°C° 0 mm 4 mps 661 mmHg 50%
    03:00 +23°C° 0 mm 4 mps 661 mmHg 53%
    04:00 +23°C° 0 mm 4 mps 661 mmHg 56%
    05:00 +22°C° 0 mm 4 mps 661 mmHg 59%
    06:00 +25°C° 0 mm 5 mps 662 mmHg 53%
    07:00 +27°C° 0 mm 5 mps 663 mmHg 48%
    08:00 +28°C° 0 mm 5 mps 663 mmHg 43%
    09:00 +30°C° 0 mm 5 mps 664 mmHg 36%
    10:00 +33°C° 0 mm 5 mps 664 mmHg 30%
    11:00 +36°C° 0 mm 4 mps 664 mmHg 23%
    12:00 +37°C° 0 mm 3 mps 664 mmHg 20%
    13:00 +38°C° 0 mm 2 mps 663 mmHg 17%
    14:00 +39°C° 0 mm 2 mps 663 mmHg 13%
    15:00 +39°C° 0 mm 1 mps 662 mmHg 13%
    16:00 +37°C° 0 mm 1 mps 662 mmHg 13%
    17:00 +37°C° 0 mm 1 mps 662 mmHg 13%
    18:00 +35°C° 0 mm 1 mps 662 mmHg 15%
    19:00 +34°C° 0 mm 1 mps 662 mmHg 17%
    20:00 +32°C° 0 mm 1 mps 662 mmHg 19%
    21:00 +31°C° 0 mm 2 mps 662 mmHg 23%
    22:00 +30°C° 0 mm 3 mps 662 mmHg 26%
    23:00 +29°C° 0 mm 4 mps 662 mmHg 29%

    18 November, Monday

    Time Temperature Precipitation Wind Pressure Humidity
    00:00 +28°C° 0 mm 4 mps 662 mmHg 30%
    01:00 +28°C° 0 mm 4 mps 661 mmHg 31%
    02:00 +28°C° 0 mm 4 mps 661 mmHg 32%
    03:00 +27°C° 0 mm 4 mps 661 mmHg 34%
    04:00 +26°C° 0 mm 4 mps 662 mmHg 35%
    05:00 +26°C° 0 mm 4 mps 662 mmHg 36%
    06:00 +27°C° 0 mm 4 mps 663 mmHg 34%
    07:00 +29°C° 0 mm 5 mps 664 mmHg 32%
    08:00 +30°C° 0 mm 6 mps 665 mmHg 30%
    09:00 +33°C° 0 mm 6 mps 665 mmHg 28%
    10:00 +35°C° 0 mm 6 mps 665 mmHg 26%
    11:00 +36°C° 0 mm 7 mps 665 mmHg 24%
    12:00 +36°C° 0 mm 7 mps 664 mmHg 24%
    13:00 +36°C° 0 mm 7 mps 664 mmHg 25%
    14:00 +36°C° 0 mm 7 mps 663 mmHg 26%
    15:00 +35°C° 0.2 mm 6 mps 662 mmHg 27%
    16:00 +35°C° 0.2 mm 5 mps 662 mmHg 29%
    17:00 +34°C° 0.2 mm 4 mps 662 mmHg 30%
    18:00 +33°C° 0 mm 4 mps 662 mmHg 33%
    19:00 +30°C° 0 mm 4 mps 662 mmHg 37%
    20:00 +29°C° 0 mm 4 mps 662 mmHg 40%
    21:00 +29°C° 0 mm 4 mps 663 mmHg 45%
    22:00 +28°C° 0 mm 4 mps 663 mmHg 49%
    23:00 +28°C° 0 mm 4 mps 664 mmHg 53%
    Show more